Regional Weather Roundup
Issued by NWS Bismarck, ND

Home | Current Version | Previous Version | Text Only | Print | Product List | Glossary On
Versions: 1 2 3 4 5 6 7 8 9 10 11 12 13 14 15 16 17 18 19 20 21 22 23 24 25 26 27 28 29 30 31 32 33 34 35 36 37 38 39 40 41 42 43 44 45 46 47 48 49 50
000
ASUS43 KBIS 310110
RWRBIS

NWR BROADCAST TEXT
NATIONAL WEATHER SERVICE BISMARCK ND
800 PM CDT TUE AUG 30 2016

NOTE: "FAIR" INDICATES FEW OR NO CLOUDS BELOW 12,000 FEET WITH NO
SIGNIFICANT WEATHER AND/OR OBSTRUCTIONS TO VISIBILITY.


CITY           SKY/WX    TMP DP  RH WIND       PRES   REMARKS
WILLISTON      CLEAR     80  51  36 E6        30.13S
MINOT          CLEAR     77  47  34 E8        30.16F
MINOT AFB      PTCLDY    76  49  38 SE9       30.15F
BISMARCK       CLEAR     74  53  48 E8        30.16F
DICKINSON      PTCLDY    76  54  46 SE12      30.12F
GARRISON         N/A     73  54  51 E7        30.15F
HETTINGER ARPT CLEAR     79  63  57 E10       30.16S
JAMESTOWN      PTCLDY    70  57  63 SE3       30.20R
CARRINGTON     FAIR      72  55  56 SE6       30.22S
HAZEN          FAIR      75  46  35 E8        30.16S
LINTON         FAIR      73  59  60 E9        30.20S
MANDAN         FAIR      73  50  43 E10       30.17S
OAKES            N/A    N/A N/A N/A MISG        N/A
RUGBY          FAIR      72  55  56 SE5       30.19S
STANLEY        FAIR      73  46  38 E7        30.19S
WATFORD CITY   FAIR      75  50  41 E10       30.13S
$$

CITY           SKY/WX    TMP DP  RH WIND       PRES   REMARKS
GRAND FORKS    PTCLDY    73  54  51 NE8       30.17S
GRAND FORKS AF CLEAR     72  54  52 E6        30.18S
DEVILS LAKE    CLEAR     73  51  46 CALM      30.21S
FARGO          CLEAR     71  56  58 CALM      30.18S
CAVALIER       FAIR      70  48  46 N6        30.20R
GRAFTON        FAIR      68  52  56 NE7       30.20S
GWINNER        FAIR      68  61  77 E6        30.20S
LANGDON        FAIR      68  55  64 NE5       30.23R
ROLLA          FAIR      66  55  68 E6        30.23S
$$

CITY           SKY/WX    TMP DP  RH WIND       PRES   REMARKS
ABERDEEN       CLOUDY    74  57  55 E7        30.18R
MOBRIDGE       PTCLDY    80  57  45 SE13      30.14R
BUFFALO          N/A     81  58  45 SE13      30.08R
RAPID CITY     CLOUDY    77  61  57 E7        30.17S
GLASGOW        CLEAR     84  58  40 SE10      30.03S
SIDNEY         PTCLDY    80  61  52 E7        30.08S
WOLF POINT     CLEAR     84  60  44 E15G23    30.05S
GLENDIVE       MOCLDY    83  60  45 SE8       30.07F
MILES CITY     CLEAR     90  52  27 SE16G24   29.99F
BAKER          CLEAR     81  58  45 SE18      30.11F
$$

CITY           SKY/WX    TMP DP  RH WIND       PRES   REMARKS
BILLINGS       PTCLDY    85  46  25 NE8       30.05F
GREAT FALLS    CLOUDY    82  44  26 NE13      30.03S
REGINA         CLEAR     77  48  36 E10G18    30.14S
ESTEVAN        PTCLDY    73  48  40 E8        30.15S
$$





USA.gov is the U.S. government's official web portal to all federal, state and local government web resources and services.